User: anonymous   Login
Location: Brunembert
(50.7122°N, 1.8935°E)
Time: 02:22:52
(UTC+00:00)
Language:

Cosmos 1862 - Orbit

View from above orbital plane
View from above orbital plane
View from above satellite
View from above satellite

Ground track
Ground track

The orbit data is extracted from the following two-line orbital elements,

1 18152U 87055A   21169.46510569  .00001003  00000-0  65601-4 0  9993
2 18152  82.4950 311.1575 0011507 262.9492  97.0427 15.06657650828624
Epoch (UTC): 18 June 2021 11:09:45
Eccentricity: 0.0011507
inclination: 82.4950°
perigee height: 538 km
apogee height: 554 km
right ascension of ascending node: 311.1575°
argument of perigee: 262.9492°
revolutions per day: 15.06657650
mean anomaly at epoch: 97.0427°
orbit number at epoch: 82862

The dashed part of the orbit path shows where the satellite is in the earth's shadow,  

DLR